エンケ彗星

2P/Encke (2013)

English version
Home page
Updated on September 21, 2014

---------------------------------------------------------------------

・ プロフィール

・ 写真集

・ 軌道要素

Epoch 2013 Nov. 4.0 TT = JDT 2456600.5
T 2013 Nov. 21.69453 TT                                 MPC
q   0.3361267            (2000.0)            P               Q
n   0.29903302     Peri.  186.53563     -0.94510554     -0.31479095
a   2.2147427      Node   334.57309     +0.30828474     -0.77005320
e   0.8482322      Incl.   11.77897     +0.10833298     -0.55490966
P   3.30
From 2405 observations 1993 July 22-2013 Oct. 14, mean residual 0".8.
     Nongravitational parameters A1 = +0.01, A2 = -0.0006.

・ 星図

・ 光度変化

        H = 14.2  G = 0.15                [    ,-100]  (              〜2013年 8月13日)
        m1 =  9.8 + 5 logΔ + 25   log r  [-100, -45]  (2013年 8月13日〜2013年10月 7日)
        m1 = 10.3 + 5 logΔ +  7.0 log r  [ -45,  20]  (2013年10月 7日〜2013年12月11日)
        m1 = 12.3 + 5 logΔ + 15.7 log r  [  20, 100]  (2013年12月11日〜2014年 3月 1日)
        H = 14.2  G = 0.15                [ 100,    ]  (2014年 3月 1日〜              )

---------------------------------------------------------------------

軌道要素はM.P.E.C. 2013-T115に掲載されたものです。
星図はステラナビゲータ Ver.8 (アストロアーツ) で作成したものです。
光度グラフはComet for Windowsで作成したものです。

---------------------------------------------------------------------

Copyright(C) Seiichi Yoshida (comet@aerith.net). All rights reserved.